Regional Weather Roundup
Issued by NWS

Home | Current Version | Previous Version | Text Only | Print | Product List | Glossary On
Versions: 1 2 3 4 5 6 7 8 9 10 11 12 13 14 15 16 17 18 19 20 21 22 23 24 25 26 27 28 29 30 31 32 33 34 35 36 37 38 39 40 41 42 43 44 45 46 47 48 49 50
000
ASUS43 KLSX 010907
RWRMO

WEATHER SUMMARY FOR MISSOURI
NATIONAL WEATHER SERVICE SPRINGFIELD MO
400 AM CDT MON SEP 01 2014

NOTE: "FAIR" INDICATES FEW OR NO CLOUDS BELOW 12,000 FEET WITH NO
       SIGNIFICANT WEATHER AND/OR OBSTRUCTIONS TO VISIBILITY.
       CURRENT SKY AND/OR WEATHER CONDITIONS ARE NOT AVAILABLE FOR
       CHILLICOTHE AND FARMINGTON.

MOZ001>031-035>038-043-044-053-054-011000-
...NORTHERN AND WESTERN MISSOURI...

CITY           SKY/WX    TMP DP  RH WIND       PRES   REMARKS
KANSAS CTY INT TSTM      66  63  90 S28G38    29.77F
KANSAS C DTWN  RAIN      68  65  90 S14G22    29.85F FOG
ST JOSEPH      CLOUDY    67  65  93 S14       29.76F
CHILLICOTHE      N/A     67  65  93 VRB7      29.86R
KIRKSVILLE     LGT RAIN  68  66  93 SW9       29.81F

$$
MOZ066>068-077>081-088>096-101>105-011000-
...SOUTHWEST MISSOURI...

CITY           SKY/WX    TMP DP  RH WIND       PRES   REMARKS
SPRINGFIELD    MOCLDY    75  70  84 SE7       29.90F
JOPLIN         HVY RAIN  64  63  96 N22G41    29.98R FOG

$$
MOZ032>034-039>042-045>050-055>058-069>072-011000-
...CENTRAL MISSOURI...

CITY           SKY/WX    TMP DP  RH WIND       PRES   REMARKS
COLUMBIA       MOCLDY    67  65  93 SW6       29.88F
JEFFERSON CITY MOCLDY    70  65  84 CALM      29.88S
ROLLA          CLOUDY    74  66  76 NW7       29.90R
SEDALIA        RAIN      68  66  94 W5        29.94R FOG
WHITEMAN AFB   LGT RAIN  68  66  95 SW10      29.94R FOG
OSAGE BEACH    CLOUDY    68  64  88 CALM      29.91S

$$
MOZ051-052-059>065-011000-
...EAST CENTRAL MISSOURI...

CITY           SKY/WX    TMP DP  RH WIND       PRES   REMARKS
ST LOUIS INTL  PTCLDY    78  71  79 S12       29.86F
SPIRIT OF STL  MOCLDY    76  71  85 SW3       29.85F
ST CHARLES     MOCLDY    76  71  85 SW7       29.85S

$$
MOZ072>076-082>087-097>100-106>115-011000-
...SOUTH CENTRAL AND SOUTHEAST MISSOURI...

CITY           SKY/WX    TMP DP  RH WIND       PRES   REMARKS
CAPE GIRARDEAU MOCLDY    75  72  90 S10       29.95R
FARMINGTON     PTCLDY    73  70  88 SW9       29.95S
POPLAR BLUFF   PTCLDY    75  70  84 S7        29.94S
WEST PLAINS    CLOUDY    73  70  90 S5        29.96S

$$


USA.gov is the U.S. government's official web portal to all federal, state and local government web resources and services.